Simultaneous Nadir Overpasses (SNOs) Predictions

Prediction of SNOs between GOES-16 and NOAA-20 Satellite Orbit:

Table of predicted SNOs for the next 14.0 days since TLE Epoch: 3/8/2019
Index Date Time (GOES-16) GOES-16 Lat,Lon NOAA-20 Lat,Lon Distance(km) Time Diff (sec)
1 03/09/2019 06:39:02 -0.03, -75.20 0.59, -77.99 318.01 80
2 03/10/2019 06:17:38 -0.03, -75.20 -0.43, -73.46 198.50 80
3 03/11/2019 18:39:34 0.03, -75.21 -0.75, -78.77 405.05 80
4 03/12/2019 18:23:30 0.03, -75.21 0.27, -74.24 111.68 80
5 03/14/2019 06:45:17 -0.03, -75.22 0.94, -79.51 488.96 80
6 03/15/2019 06:23:52 -0.02, -75.22 -0.09, -74.98 27.80 80
7 03/17/2019 18:29:43 0.01, -75.24 -0.13, -75.75 58.19 80
8 03/18/2019 18:10:59 0.00, -75.25 0.90, -71.22 459.14 80
9 03/20/2019 06:32:47 -0.00, -75.26 0.25, -76.50 140.38 80
10 03/21/2019 06:11:22 -0.00, -75.27 -0.72, -71.96 377.23 80
11 03/22/2019 18:33:18 0.00, -75.30 -0.46, -77.27 224.64 80




NCC Satellite Simultaneous Nadir Overpasses (SNOs) Prediction Service
